[[{"header":{"parameterUnit":"m.s-1","parameterCategory":2,"la1":30.2991,"la2":30.254,"lo1":-89.0895,"lo2":-89.0444,"dy":0.0017,"dx":0.0017,"nx":28,"ny":28,"refTime":"2024-10-21T03:00:00:Z","depth":"0","parameterNumber":2,"parameterNumberName":"U-component_of_CURRENTS"},"data":[0,0,0,0,0,0,0,0,0,0,0,0,0,0,0,0,0,0,0,0,0,0,0,0,0,0,0,0,0,0,0,0,0,0,0,0,0,0,0,0,0,0,0,0,0,0,0,0,0,0,0,0,0,0,0,0,0,0,-0.3836,-0.3837,0,-0.3861,-0.3861,-0.386,-0.3774,-0.3772,-0.377,-0.3768,-0.3641,-0.364,-0.3638,0,0,0,0,0,0,0,0,0,0,0,0,0,-0.3697,-0.3699,-0.3836,-0.3837,-0.3838,-0.3861,-0.3861,-0.386,-0.3774,-0.3772,-0.3769,-0.3767,-0.3642,-0.364,-0.3638,0,0,0,0,0,0,0,0,0,0,0,0,0,-0.3737,-0.37,-0.3836,-0.3803,-0.38,-0.3861,-0.3861,-0.386,-0.3775,-0.3771,-0.3768,-0.3766,-0.3642,-0.364,-0.3638,-0.3685,0,0,-0.3631,-0.363,0,0,0,0,0,0,0,0,-0.3735,-0.3741,-0.3807,-0.3805,-0.3803,-0.3817,-0.3765,-0.3796,-0.3775,-0.3778,-0.3768,-0.3764,-0.3692,-0.3686,-0.369,-0.3679,-0.3673,-0.3631,-0.363,-0.3629,-0.3628,0,0,0,0,0,0,0,-0.3732,-0.374,-0.384,-0.3808,-0.3806,-0.378,-0.3782,-0.3771,-0.3744,-0.3777,-0.3772,-0.3786,-0.3689,-0.3693,-0.3686,-0.3671,-0.3631,-0.3629,-0.3628,-0.3627,-0.365,-0.3652,0,0,0,0,0,0,-0.3747,-0.3738,-0.3839,-0.3841,-0.3768,-0.3786,-0.3788,-0.381,-0.3747,-0.3738,-0.3789,-0.3782,-0.3698,-0.3689,-0.3681,-0.3706,-0.3629,-0.3626,-0.3625,-0.3648,-0.3651,-0.3653,0,0,0,0,0,0,-0.3744,-0.3756,-0.3838,-0.3794,-0.3803,-0.3792,-0.3818,-0.3812,-0.3813,-0.3759,-0.3744,-0.3795,-0.3695,-0.3684,-0.368,-0.3701,-0.3625,-0.3623,-0.3646,-0.3649,-0.3652,-0.3771,0,0,0,0,0,0,-0.374,-0.3755,-0.3769,-0.3796,-0.3807,-0.3883,-0.3821,-0.3815,-0.3829,-0.382,-0.376,-0.3745,-0.3692,-0.3684,-0.3678,-0.3696,-0.3622,-0.3644,-0.3648,-0.3651,-0.3765,-0.3778,-0.3789,0,0,0,0,0,-0.3735,-0.3774,-0.3769,-0.3781,-0.3829,-0.3886,-0.3889,-0.3865,-0.3833,-0.385,-0.3808,-0.3747,-0.3702,-0.3685,-0.3677,-0.3695,-0.3642,-0.3646,-0.3651,-0.376,-0.3776,-0.3789,0,0,0,0,0,0,-0.3715,-0.3771,-0.3765,-0.3817,-0.3852,-0.3873,-0.389,-0.3882,-0.3868,-0.3847,-0.3783,-0.3768,-0.3768,-0.3728,-0.3711,-0.3714,-0.3658,-0.3662,-0.3744,-0.3758,-0.377,-0.3759,-0.362,0,0,0,0,0,-0.3724,-0.3763,-0.3812,-0.3849,-0.3874,-0.3886,-0.3902,-0.3896,-0.3895,-0.3885,-0.3845,-0.3804,-0.3787,-0.3768,-0.3744,-0.3758,-0.3679,-0.3762,-0.3774,-0.3785,-0.3772,-0.3685,-0.3687,-0.3668,-0.3668,-0.3667,0,0,-0.3717,-0.3761,-0.3774,-0.3847,-0.3867,-0.3918,-0.3886,-0.3927,-0.3953,-0.3876,-0.3882,-0.3849,-0.3803,-0.3809,-0.3805,-0.3773,-0.3754,-0.379,-0.38,-0.378,-0.369,-0.3691,-0.3692,-0.3671,-0.367,-0.367,0,0,-0.3754,-0.3776,-0.383,-0.3872,-0.3931,-0.3942,-0.3962,-0.3995,-0.399,-0.4015,-0.396,-0.3942,-0.3919,-0.3885,-0.3867,-0.3937,-0.3825,-0.3933,-0.3978,-0.3896,-0.3896,-0.3894,-0.3809,-0.3799,-0.3933,-0.3933,-0.3934,0,-0.374,-0.3821,-0.3852,-0.3925,-0.3951,-0.396,-0.4015,-0.4036,-0.4054,-0.4046,-0.4024,-0.3977,-0.395,-0.394,-0.397,-0.3961,-0.3891,-0.3927,-0.3908,-0.3906,-0.3902,-0.3814,-0.3802,-0.394,-0.3939,-0.3938,-0.3938,0,-0.3823,-0.3886,-0.3925,-0.4007,-0.4041,-0.4092,-0.4129,-0.4147,-0.4135,-0.4132,-0.4121,-0.4086,-0.4038,-0.405,-0.4036,-0.4014,-0.3965,-0.3937,-0.3866,-0.3911,-0.3817,-0.3801,-0.3949,-0.3946,-0.3945,-0.3943,0,0,-0.3779,-0.3949,-0.3958,-0.4,-0.4084,-0.4111,-0.4168,-0.4202,-0.4194,-0.4206,-0.4178,-0.4191,-0.4141,-0.4119,-0.4091,-0.4045,-0.3989,-0.3994,-0.3987,-0.39,-0.3794,-0.3688,-0.366,-0.395,-0.3948,-0.3947,-0.3742,0,-0.3823,-0.3984,-0.4035,-0.4118,-0.4189,-0.4202,-0.4236,-0.4256,-0.4249,-0.4224,-0.4198,-0.416,-0.4177,-0.4138,-0.4107,-0.4014,-0.3952,-0.4046,-0.3771,-0.3762,-0.3654,-0.364,-0.3524,-0.3324,-0.3726,-0.3723,-0.3721,0,-0.3863,-0.3975,-0.4109,-0.4174,-0.4193,-0.4225,-0.4228,-0.4256,-0.4244,-0.423,-0.42,-0.4156,-0.412,-0.4103,-0.3966,-0.4022,-0.3918,-0.3845,-0.3834,-0.3674,-0.3626,-0.3342,-0.328,-0.3263,-0.3696,-0.3698,-0.37,0,-0.3833,-0.3978,-0.4084,-0.4123,-0.4229,-0.424,-0.4245,-0.4252,-0.4225,-0.4213,-0.4156,-0.4126,-0.405,-0.3963,-0.3843,-0.389,-0.3645,-0.3677,-0.3477,-0.3468,-0.3281,-0.3259,-0.3154,-0.3537,-0.3538,-0.3538,-0.3539,0,-0.3857,-0.3913,-0.4078,-0.4144,-0.4168,-0.4225,-0.4193,-0.4213,-0.4174,-0.4079,-0.4134,-0.4034,-0.4004,-0.387,-0.3796,-0.3573,-0.3594,-0.346,-0.3398,-0.3323,-0.3308,-0.3213,-0.3252,-0.3531,-0.3532,-0.3534,-0.3535,0,-0.3811,-0.3941,-0.4046,-0.4175,-0.4178,-0.4188,-0.4136,-0.4076,-0.4095,-0.3966,-0.3946,-0.3923,-0.3771,-0.3701,-0.3521,-0.3459,-0.3219,-0.3195,-0.3113,-0.3046,-0.2893,-0.2943,-0.2724,-0.2648,-0.2965,-0.2961,-0.2957,0,-0.3799,-0.3884,-0.4046,-0.4041,-0.409,-0.4084,-0.4023,-0.4036,-0.3936,-0.3855,-0.3746,-0.3643,-0.349,-0.3251,-0.3145,-0.2968,-0.2989,-0.2756,-0.2838,-0.284,-0.2851,-0.2898,-0.2857,-0.2641,-0.2636,-0.2631,-0.2627,0,-0.3754,-0.3841,-0.3942,-0.3949,-0.3916,-0.3845,-0.3757,-0.3673,-0.3614,-0.3542,-0.3371,-0.3274,-0.3103,-0.2902,-0.2735,-0.2633,-0.2712,-0.2653,-0.266,-0.2584,-0.2618,-0.2529,-0.284,-0.2586,-0.259,-0.2593,-0.2595,-0.2597,-0.3664,-0.3729,-0.3828,-0.3787,-0.3708,-0.3521,-0.3365,-0.3277,-0.3116,-0.2907,-0.2974,-0.2803,-0.2726,-0.2506,-0.2401,-0.2257,-0.2362,-0.2219,-0.2275,-0.2319,-0.2262,-0.2485,-0.2169,-0.2171,-0.2172,-0.2174,-0.2175,0,-0.3527,-0.3597,-0.359,-0.3515,-0.328,-0.3313,-0.3081,-0.2884,-0.2624,-0.2579,-0.2445,-0.2348,-0.2178,-0.2147,-0.2031,-0.1929,-0.192,-0.1894,-0.1959,-0.193,-0.2099,-0.2104,-0.1753,-0.1753,-0.1753,-0.1753,-0.1753,-0.1753,-0.3458,-0.3449,-0.3473,-0.3086,-0.295,-0.2582,-0.2398,-0.2208,-0.2099,-0.1903,-0.1872,-0.1911,-0.1932,-0.2035,-0.1895,-0.1799,-0.1785,-0.1705,-0.1752,-0.1931,-0.1968,-0.2004,-0.2017,-0.1654,-0.1654,-0.1519,-0.1518,-0.1517]},{"header":{"parameterUnit":"m.s-1","parameterCategory":2,"la1":30.2991,"la2":30.254,"lo1":-89.0895,"lo2":-89.0444,"dy":0.0017,"dx":0.0017,"nx":28,"ny":28,"refTime":"2024-10-21T03:00:00:Z","depth":"0","parameterNumber":3,"parameterNumberName":"V-component_of_CURRENTS"},"data":[0,0,0,0,0,0,0,0,0,0,0,0,0,0,0,0,0,0,0,0,0,0,0,0,0,0,0,0,0,0,0,0,0,0,0,0,0,0,0,0,0,0,0,0,0,0,0,0,0,0,0,0,0,0,0,0,0,0,-0.1073,-0.1071,0,-0.0935,-0.0933,-0.0932,-0.086,-0.086,-0.086,-0.086,-0.0634,-0.0628,-0.0622,0,0,0,0,0,0,0,0,0,0,0,0,0,-0.1155,-0.1154,-0.1073,-0.1071,-0.1069,-0.0935,-0.0933,-0.0932,-0.086,-0.086,-0.086,-0.086,-0.0636,-0.0629,-0.0622,0,0,0,0,0,0,0,0,0,0,0,0,0,-0.1079,-0.1154,-0.1073,-0.1017,-0.1011,-0.0936,-0.0933,-0.0931,-0.086,-0.086,-0.086,-0.0859,-0.0638,-0.063,-0.0621,-0.0571,0,0,-0.0594,-0.059,0,0,0,0,0,0,0,0,-0.1084,-0.1076,-0.1027,-0.1021,-0.1013,-0.0914,-0.0879,-0.0806,-0.086,-0.0918,-0.086,-0.0859,-0.0719,-0.0704,-0.068,-0.0561,-0.0551,-0.0593,-0.0588,-0.0584,-0.0582,0,0,0,0,0,0,0,-0.1089,-0.1081,-0.1019,-0.1025,-0.1017,-0.0958,-0.0948,-0.0865,-0.082,-0.0913,-0.0907,-0.0891,-0.0715,-0.0689,-0.0674,-0.0548,-0.0593,-0.0586,-0.058,-0.0577,-0.0312,-0.0311,0,0,0,0,0,0,-0.1112,-0.1087,-0.1023,-0.1015,-0.1048,-0.0957,-0.0946,-0.0947,-0.0823,-0.0804,-0.0891,-0.0888,-0.0704,-0.0685,-0.0666,-0.0567,-0.0584,-0.0576,-0.0571,-0.0314,-0.0312,-0.031,0,0,0,0,0,0,-0.1114,-0.1108,-0.1029,-0.1046,-0.1032,-0.0957,-0.0957,-0.0944,-0.0915,-0.0807,-0.0787,-0.0876,-0.0703,-0.0678,-0.0573,-0.0559,-0.0572,-0.0564,-0.0316,-0.0313,-0.0311,-0.039,0,0,0,0,0,0,-0.1118,-0.111,-0.1119,-0.1048,-0.1032,-0.0984,-0.0957,-0.0941,-0.0906,-0.09,-0.0787,-0.0767,-0.0701,-0.0587,-0.0565,-0.0547,-0.0557,-0.0318,-0.0315,-0.0312,-0.039,-0.0391,-0.0391,0,0,0,0,0,-0.1121,-0.1143,-0.1121,-0.1112,-0.1047,-0.0984,-0.097,-0.0915,-0.0905,-0.089,-0.0804,-0.077,-0.0551,-0.0578,-0.0552,-0.0532,-0.032,-0.0316,-0.0312,-0.0389,-0.039,-0.0391,0,0,0,0,0,0,-0.1179,-0.1135,-0.111,-0.1115,-0.1051,-0.0972,-0.0961,-0.092,-0.0843,-0.0839,-0.0743,-0.0714,-0.0619,-0.0557,-0.0591,-0.0443,-0.0431,-0.0422,-0.0499,-0.0499,-0.0499,-0.0538,-0.055,0,0,0,0,0,-0.1197,-0.1205,-0.1133,-0.1134,-0.1111,-0.1036,-0.1006,-0.0964,-0.0887,-0.0856,-0.0773,-0.0678,-0.0583,-0.0529,-0.0441,-0.0358,-0.0308,-0.0326,-0.0327,-0.0329,-0.034,-0.025,-0.0245,-0.0297,-0.0297,-0.0297,0,0,-0.1221,-0.1195,-0.1201,-0.1146,-0.1101,-0.1064,-0.1019,-0.0978,-0.0937,-0.084,-0.0766,-0.0678,-0.0561,-0.0468,-0.042,-0.0414,-0.0285,-0.0324,-0.0326,-0.0336,-0.0245,-0.0241,-0.0237,-0.0294,-0.0295,-0.0295,0,0,-0.1276,-0.125,-0.1274,-0.122,-0.1153,-0.1093,-0.1084,-0.0999,-0.0956,-0.0866,-0.0786,-0.0689,-0.0552,-0.0463,-0.04,-0.0348,-0.0295,-0.032,-0.0352,-0.0265,-0.0261,-0.0257,-0.0189,-0.0179,-0.0319,-0.0319,-0.0319,0,-0.1307,-0.1315,-0.1264,-0.1253,-0.1207,-0.1113,-0.1094,-0.1031,-0.0917,-0.0871,-0.0853,-0.0641,-0.055,-0.0423,-0.0408,-0.0353,-0.0305,-0.0366,-0.027,-0.0265,-0.026,-0.0191,-0.0178,-0.0322,-0.0322,-0.0321,-0.0321,0,-0.1369,-0.1355,-0.1358,-0.1311,-0.1254,-0.122,-0.1117,-0.1062,-0.0996,-0.0918,-0.0794,-0.0666,-0.054,-0.0494,-0.0435,-0.034,-0.032,-0.029,-0.0283,-0.026,-0.0188,-0.0174,-0.0327,-0.0326,-0.0325,-0.0324,0,0,-0.1481,-0.1421,-0.1417,-0.1388,-0.1276,-0.1234,-0.1163,-0.1061,-0.1015,-0.09,-0.0825,-0.0666,-0.0601,-0.0526,-0.0434,-0.0361,-0.028,-0.0323,-0.0317,-0.0283,-0.0103,-0.0047,-0.0025,-0.0241,-0.0239,-0.0237,-0.0071,0,-0.1537,-0.1548,-0.1479,-0.1435,-0.1418,-0.1288,-0.1222,-0.1112,-0.1014,-0.0918,-0.0778,-0.0673,-0.0609,-0.0554,-0.0466,-0.0317,-0.0245,-0.0329,-0.0106,-0.01,-0.0075,-0.0007,0.0042,0.0198,-0.0056,-0.0054,-0.0052,0,-0.162,-0.1603,-0.1613,-0.149,-0.1468,-0.142,-0.1289,-0.1215,-0.1053,-0.0975,-0.0848,-0.0738,-0.0585,-0.0556,-0.0309,-0.0369,-0.0252,-0.0152,-0.0143,-0.0056,-0.0016,0.014,0.0235,0.0396,-0.0029,-0.0031,-0.0032,0,-0.1753,-0.1676,-0.1693,-0.1656,-0.1526,-0.1489,-0.1399,-0.1249,-0.1175,-0.1022,-0.0953,-0.0761,-0.0653,-0.0486,-0.0265,-0.0289,-0.0011,-0.0007,0.0152,0.0157,0.0262,0.0272,0.0516,0.0144,0.0144,0.0143,0.0143,0,-0.1857,-0.1846,-0.1759,-0.177,-0.1723,-0.1594,-0.1528,-0.1418,-0.1267,-0.1161,-0.1001,-0.088,-0.0635,-0.0437,-0.0267,0.0007,0.0003,0.016,0.0215,0.0238,0.0244,0.0438,0.0486,0.0149,0.0148,0.0147,0.0146,0,-0.2021,-0.1977,-0.1961,-0.1849,-0.1805,-0.1778,-0.1601,-0.1536,-0.1399,-0.1262,-0.1215,-0.0952,-0.068,-0.043,-0.0128,0.0022,0.0373,0.0344,0.0346,0.0398,0.0671,0.0711,0.1,0.1095,0.0542,0.0544,0.0546,0,-0.2108,-0.2147,-0.2055,-0.2014,-0.1967,-0.1885,-0.1807,-0.1635,-0.154,-0.1285,-0.121,-0.0938,-0.069,-0.0228,0.0079,0.0404,0.0513,0.0614,0.0582,0.0714,0.08,0.0823,0.0882,0.0693,0.0696,0.0699,0.0701,0,-0.2258,-0.2248,-0.2234,-0.2146,-0.2073,-0.1975,-0.1844,-0.1788,-0.1564,-0.1431,-0.1175,-0.0974,-0.0505,-0.0087,0.0321,0.0512,0.0739,0.0676,0.0837,0.0963,0.0984,0.1091,0.0534,0.0724,0.0722,0.072,0.0719,0.0718,-0.2348,-0.2376,-0.2337,-0.2229,-0.214,-0.2017,-0.1924,-0.178,-0.1624,-0.1342,-0.1155,-0.078,-0.0234,0.0368,0.0577,0.1014,0.0952,0.1134,0.1178,0.1194,0.1276,0.0754,0.0986,0.0985,0.0985,0.0984,0.0983,0,-0.2431,-0.2433,-0.2374,-0.2242,-0.2121,-0.2052,-0.1889,-0.1766,-0.1573,-0.1289,-0.1017,-0.0334,0.0203,0.0684,0.1275,0.1501,0.1536,0.1611,0.1663,0.1704,0.1284,0.128,0.1558,0.1558,0.1558,0.1558,0.1557,0.1557,-0.2474,-0.2478,-0.2426,-0.2219,-0.2107,-0.1935,-0.1835,-0.1667,-0.1434,-0.0957,-0.0528,-0.0184,0.0476,0.138,0.1906,0.1954,0.2127,0.2123,0.2205,0.1913,0.1871,0.1831,0.1842,0.2233,0.2234,0.2617,0.2621,0.2624]}],[{"header":{"parameterUnit":"m.s-1","parameterCategory":2,"la1":30.2991,"la2":30.254,"lo1":-89.0895,"lo2":-89.0444,"dy":0.0017,"dx":0.0017,"nx":28,"ny":28,"refTime":"2024-10-21T03:00:00:Z","depth":"2","parameterNumber":2,"parameterNumberName":"U-component_of_CURRENTS"},"data":[0,0,0,0,0,0,0,0,0,0,0,0,0,0,0,0,0,0,0,0,0,0,0,0,0,0,0,0,0,0,0,0,0,0,0,0,0,0,0,0,0,0,0,0,0,0,0,0,0,0,0,0,0,0,0,0,0,0,-0.2479,-0.248,0,-0.2544,-0.2545,-0.2546,-0.2564,-0.2564,-0.2563,-0.2563,-0.2711,-0.2715,-0.2719,0,0,0,0,0,0,0,0,0,0,0,0,0,-0.2447,-0.2447,-0.2479,-0.248,-0.2481,-0.2544,-0.2545,-0.2546,-0.2564,-0.2564,-0.2563,-0.2563,-0.2709,-0.2715,-0.272,0,0,0,0,0,0,0,0,0,0,0,0,0,-0.2482,-0.2447,-0.2479,-0.2497,-0.2499,-0.2544,-0.2545,-0.2547,-0.2564,-0.2564,-0.2563,-0.2562,-0.2708,-0.2714,-0.2721,-0.2775,0,0,-0.2741,-0.2743,0,0,0,0,0,0,0,0,-0.248,-0.2483,-0.2493,-0.2496,-0.2498,-0.2545,-0.2588,-0.2627,-0.2565,-0.2541,-0.2563,-0.2562,-0.2663,-0.2673,-0.2687,-0.2782,-0.2788,-0.2741,-0.2745,-0.2748,-0.275,0,0,0,0,0,0,0,-0.2477,-0.2481,-0.2506,-0.2494,-0.2497,-0.2527,-0.2531,-0.2596,-0.2607,-0.2543,-0.2544,-0.255,-0.2665,-0.2681,-0.2691,-0.2791,-0.2741,-0.2747,-0.2751,-0.2753,-0.2927,-0.2928,0,0,0,0,0,0,-0.2464,-0.2478,-0.2504,-0.2508,-0.2486,-0.2528,-0.2532,-0.2531,-0.2605,-0.2614,-0.255,-0.255,-0.267,-0.2683,-0.2696,-0.282,-0.2748,-0.2754,-0.2758,-0.2926,-0.2927,-0.2928,0,0,0,0,0,0,-0.2463,-0.2465,-0.2502,-0.2494,-0.2501,-0.2528,-0.2528,-0.2533,-0.256,-0.2609,-0.262,-0.2573,-0.267,-0.2687,-0.276,-0.2824,-0.2757,-0.2763,-0.2925,-0.2927,-0.2927,-0.3034,0,0,0,0,0,0,-0.2462,-0.2464,-0.2488,-0.2493,-0.2501,-0.2568,-0.2529,-0.2535,-0.2563,-0.2564,-0.2633,-0.2645,-0.2671,-0.275,-0.2767,-0.2832,-0.2768,-0.2925,-0.2926,-0.2927,-0.3029,-0.3038,-0.3046,0,0,0,0,0,-0.246,-0.248,-0.2489,-0.2494,-0.2522,-0.2571,-0.258,-0.2597,-0.2565,-0.261,-0.2625,-0.2643,-0.2769,-0.2757,-0.2776,-0.2845,-0.2924,-0.2926,-0.2927,-0.3026,-0.3037,-0.3046,0,0,0,0,0,0,-0.2494,-0.2484,-0.2493,-0.2516,-0.2562,-0.2574,-0.2598,-0.2606,-0.2651,-0.2653,-0.2668,-0.2684,-0.2791,-0.2779,-0.2764,-0.2888,-0.2844,-0.2849,-0.2912,-0.2923,-0.2931,-0.2904,-0.2774,0,0,0,0,0,-0.2509,-0.2514,-0.2535,-0.2564,-0.2568,-0.2586,-0.2609,-0.2639,-0.2663,-0.2681,-0.2729,-0.2758,-0.281,-0.2832,-0.2901,-0.296,-0.291,-0.3005,-0.3013,-0.3021,-0.3005,-0.2966,-0.2969,-0.2933,-0.2933,-0.2933,0,0,-0.2565,-0.2529,-0.2561,-0.2573,-0.2583,-0.2622,-0.2598,-0.2652,-0.2708,-0.2695,-0.2784,-0.2827,-0.2839,-0.2928,-0.2967,-0.2923,-0.3007,-0.3023,-0.303,-0.3009,-0.2968,-0.2971,-0.2974,-0.2934,-0.2934,-0.2933,0,0,-0.2584,-0.2603,-0.259,-0.2625,-0.2646,-0.2676,-0.2692,-0.2741,-0.2781,-0.2857,-0.2874,-0.2924,-0.2994,-0.3026,-0.3033,-0.3113,-0.3081,-0.3146,-0.3144,-0.3108,-0.311,-0.3112,-0.3064,-0.306,-0.3114,-0.3115,-0.3115,0,-0.263,-0.2624,-0.2614,-0.2596,-0.2643,-0.2691,-0.2734,-0.2787,-0.2877,-0.29,-0.2896,-0.3003,-0.3026,-0.3104,-0.3117,-0.3138,-0.3099,-0.3117,-0.3119,-0.312,-0.3119,-0.3069,-0.3064,-0.312,-0.3119,-0.3119,-0.3118,0,-0.2633,-0.2657,-0.2651,-0.2647,-0.2701,-0.2771,-0.2831,-0.2909,-0.2942,-0.2974,-0.3085,-0.3131,-0.3157,-0.3198,-0.3168,-0.3211,-0.3181,-0.3168,-0.3098,-0.313,-0.3074,-0.3067,-0.3128,-0.3126,-0.3124,-0.3123,0,0,-0.2695,-0.2656,-0.2683,-0.2682,-0.2756,-0.2796,-0.2886,-0.297,-0.2988,-0.3105,-0.3129,-0.3229,-0.3236,-0.3243,-0.3277,-0.324,-0.3204,-0.3186,-0.3181,-0.3143,-0.311,-0.3024,-0.3007,-0.3193,-0.3192,-0.3191,-0.3077,0,-0.272,-0.2682,-0.2701,-0.2781,-0.2776,-0.2869,-0.2928,-0.3013,-0.3064,-0.3111,-0.3179,-0.3232,-0.3263,-0.3278,-0.3261,-0.3225,-0.3186,-0.3234,-0.3078,-0.3073,-0.2998,-0.2996,-0.2799,-0.2674,-0.3069,-0.3067,-0.3066,0,-0.2754,-0.2702,-0.272,-0.2774,-0.279,-0.2857,-0.2953,-0.3025,-0.3088,-0.3103,-0.3173,-0.3227,-0.3262,-0.3254,-0.3214,-0.3243,-0.317,-0.3135,-0.313,-0.2999,-0.2972,-0.2702,-0.2644,-0.3053,-0.3054,-0.3055,-0.3056,0,-0.2743,-0.2781,-0.278,-0.2807,-0.2832,-0.2876,-0.2945,-0.3006,-0.3049,-0.3103,-0.3114,-0.3187,-0.3202,-0.3169,-0.312,-0.3145,-0.303,-0.3046,-0.2921,-0.2914,-0.2685,-0.2659,-0.2984,-0.2984,-0.2985,-0.2985,-0.2985,0,-0.2728,-0.2786,-0.2766,-0.2747,-0.2769,-0.2837,-0.2881,-0.2924,-0.3,-0.3016,-0.311,-0.3143,-0.317,-0.3146,-0.3094,-0.2973,-0.3003,-0.2908,-0.2873,-0.2718,-0.2697,-0.2976,-0.2976,-0.2981,-0.2982,-0.2982,-0.2983,0,-0.268,-0.2697,-0.2682,-0.2696,-0.2719,-0.2722,-0.2834,-0.2869,-0.2935,-0.2965,-0.2993,-0.3075,-0.3022,-0.3046,-0.2948,-0.2911,-0.2819,-0.2768,-0.2585,-0.2531,-0.2736,-0.2744,-0.2611,-0.2607,-0.2603,-0.26,-0.2598,0,-0.2644,-0.2598,-0.2586,-0.2581,-0.2583,-0.2626,-0.2662,-0.278,-0.2819,-0.2916,-0.2921,-0.2942,-0.2895,-0.2765,-0.269,-0.258,-0.269,-0.2349,-0.2366,-0.2715,-0.2696,-0.2709,-0.2721,-0.2105,-0.2098,-0.2093,-0.2089,0,-0.2539,-0.2535,-0.2487,-0.2417,-0.2449,-0.2473,-0.2551,-0.2577,-0.2702,-0.273,-0.2732,-0.2717,-0.2637,-0.2437,-0.2337,-0.226,-0.2358,-0.2241,-0.2612,-0.2248,-0.2233,-0.2217,-0.2245,-0.2043,-0.2048,-0.2051,-0.2054,-0.2056,-0.2494,-0.2411,-0.233,-0.228,-0.2318,-0.2314,-0.2281,-0.2378,-0.2387,-0.2394,-0.2474,-0.2362,-0.2333,-0.2067,-0.1953,-0.1886,-0.2054,-0.1973,-0.199,-0.2013,-0.1992,-0.1974,-0.1731,-0.1733,-0.1736,-0.1738,-0.174,0,-0.2356,-0.2289,-0.2231,-0.2137,-0.2113,-0.2168,-0.2199,-0.2143,-0.2089,-0.2113,-0.2071,-0.185,-0.17,-0.1689,-0.1515,-0.1482,-0.1485,-0.1423,-0.1432,-0.1477,-0.1517,-0.1475,-0.1074,-0.1072,-0.107,-0.1068,0,0,-0.2276,-0.216,-0.2093,-0.1959,-0.1921,-0.1817,-0.1793,-0.1732,-0.1712,-0.1607,-0.1542,-0.1611,-0.1633,-0.1357,-0.129,-0.1156,-0.1306,-0.1096,-0.1628,-0.1683,-0.1721,-0.1828,-0.1811,0,0,0,0,0]},{"header":{"parameterUnit":"m.s-1","parameterCategory":2,"la1":30.2991,"la2":30.254,"lo1":-89.0895,"lo2":-89.0444,"dy":0.0017,"dx":0.0017,"nx":28,"ny":28,"refTime":"2024-10-21T03:00:00:Z","depth":"2","parameterNumber":3,"parameterNumberName":"V-component_of_CURRENTS"},"data":[0,0,0,0,0,0,0,0,0,0,0,0,0,0,0,0,0,0,0,0,0,0,0,0,0,0,0,0,0,0,0,0,0,0,0,0,0,0,0,0,0,0,0,0,0,0,0,0,0,0,0,0,0,0,0,0,0,0,-0.0007,-0.0007,0,0.0053,0.0054,0.0055,0.0128,0.0129,0.013,0.0131,0.0243,0.0246,0.0248,0,0,0,0,0,0,0,0,0,0,0,0,0,0.0059,0.0057,-0.0007,-0.0007,-0.0007,0.0052,0.0054,0.0055,0.0128,0.0129,0.013,0.0131,0.0243,0.0245,0.0248,0,0,0,0,0,0,0,0,0,0,0,0,0,0.0069,0.0056,-0.0007,0.0034,0.0038,0.0052,0.0054,0.0055,0.0128,0.0129,0.013,0.0131,0.0242,0.0245,0.0248,0.0246,0,0,0.0259,0.026,0,0,0,0,0,0,0,0,0.0068,0.0067,0.0028,0.0031,0.0036,0.008,0.0118,0.012,0.0128,0.0098,0.0131,0.0132,0.019,0.0198,0.0212,0.0251,0.0256,0.0259,0.0261,0.0263,0.0264,0,0,0,0,0,0,0,0.0067,0.0065,0.0021,0.0028,0.0033,0.0089,0.0092,0.012,0.0141,0.0101,0.0105,0.0105,0.0194,0.0208,0.0215,0.0258,0.0259,0.0262,0.0264,0.0265,0.0312,0.0312,0,0,0,0,0,0,0.0043,0.0064,0.0019,0.0022,0.005,0.0086,0.0089,0.0068,0.014,0.015,0.0104,0.0108,0.0202,0.0211,0.0219,0.0223,0.0263,0.0266,0.0268,0.0313,0.0312,0.0311,0,0,0,0,0,0,0.0044,0.0038,0.0016,0.0043,0.0043,0.0083,0.006,0.0069,0.0088,0.0141,0.0153,0.0114,0.0203,0.0214,0.024,0.0228,0.0267,0.027,0.0314,0.0313,0.0312,0.0229,0,0,0,0,0,0,0.0045,0.0037,0.0025,0.004,0.0041,0.0011,0.0058,0.0069,0.0084,0.009,0.0153,0.0165,0.0205,0.0235,0.0244,0.0233,0.0273,0.0315,0.0314,0.0312,0.0233,0.0225,0.0219,0,0,0,0,0,0.0047,0.0005,0.0024,0.0019,0.0018,0.001,0.0015,0.0052,0.0083,0.0078,0.0125,0.0163,0.0232,0.0237,0.0247,0.0238,0.0316,0.0314,0.0312,0.0236,0.0227,0.0219,0,0,0,0,0,0,0.0031,0.0009,0.003,-0.0014,-0.0003,0.002,0.0014,0.0046,0.0081,0.009,0.0153,0.0167,0.0196,0.0219,0.0223,0.0246,0.028,0.028,0.0218,0.021,0.0203,0.0189,0.0276,0,0,0,0,0,0.0019,-0.002,-0.0013,-0.0044,-0.0047,-0.0011,-0.0005,0.0017,0.0043,0.0061,0.011,0.0155,0.0194,0.0203,0.0248,0.0246,0.0292,0.0246,0.0239,0.0233,0.0228,0.029,0.0288,0.0305,0.0305,0.0306,0,0,0.0013,-0.0012,-0.0024,-0.005,-0.0039,-0.0059,-0.0005,-0.0013,-0.0014,0.0066,0.0085,0.0143,0.0194,0.0209,0.022,0.0223,0.025,0.0231,0.0225,0.0224,0.0288,0.0286,0.0285,0.0304,0.0304,0.0305,0,0,-0.0054,-0.0052,-0.0112,-0.011,-0.0116,-0.0095,-0.0101,-0.0075,-0.0048,-0.0028,0.0038,0.0083,0.0131,0.0167,0.019,0.0165,0.0228,0.0175,0.0108,0.0167,0.0167,0.0167,0.0216,0.0221,0.015,0.015,0.015,0,-0.0058,-0.014,-0.0123,-0.0176,-0.0181,-0.0119,-0.0164,-0.0131,-0.0091,-0.0068,-0.0035,0.0067,0.0113,0.0136,0.0126,0.015,0.019,0.0136,0.0159,0.016,0.0161,0.0212,0.0218,0.0146,0.0146,0.0147,0.0147,0,-0.0172,-0.0218,-0.0254,-0.0299,-0.0295,-0.0325,-0.0283,-0.0257,-0.0205,-0.016,-0.0102,-0.0028,0.0031,0.0048,0.0077,0.0101,0.0128,0.0161,0.018,0.0155,0.0209,0.0218,0.014,0.0141,0.0143,0.0144,0,0,-0.0235,-0.032,-0.033,-0.0363,-0.0362,-0.0374,-0.0367,-0.0344,-0.0322,-0.0253,-0.0221,-0.0148,-0.008,-0.0051,0.0004,0.0039,0.0083,0.0085,0.009,0.0131,0.0207,0.0246,0.026,0.0119,0.012,0.0121,0.0238,0,-0.0328,-0.046,-0.0466,-0.0539,-0.059,-0.0521,-0.0516,-0.0468,-0.0398,-0.0342,-0.0246,-0.0188,-0.0128,-0.0096,-0.0048,0.0067,0.0102,0.0048,0.0227,0.0232,0.0269,0.027,0.0242,0.0345,0.0247,0.0248,0.0249,0,-0.0446,-0.0517,-0.0628,-0.0663,-0.0674,-0.0687,-0.0643,-0.0631,-0.0526,-0.0464,-0.0378,-0.0282,-0.0204,-0.0148,0.0019,-0.0019,0.0078,0.016,0.0167,0.024,0.0287,0.0357,0.0365,0.0264,0.0263,0.0262,0.0261,0,-0.0527,-0.0624,-0.0718,-0.0731,-0.0756,-0.0763,-0.0751,-0.0667,-0.0645,-0.0535,-0.0491,-0.0361,-0.0287,-0.015,0.0033,0.0026,0.0224,0.0242,0.0366,0.037,0.04,0.0404,0.0349,0.0349,0.0349,0.0349,0.0348,0,-0.0638,-0.0707,-0.076,-0.0809,-0.0865,-0.0843,-0.086,-0.0808,-0.0736,-0.0704,-0.0564,-0.0492,-0.0282,-0.0133,0.0017,0.0228,0.0221,0.0361,0.0407,0.0369,0.0369,0.0342,0.034,0.0353,0.0352,0.0351,0.035,0,-0.0724,-0.077,-0.0872,-0.0916,-0.0919,-0.0954,-0.0943,-0.0942,-0.0861,-0.0811,-0.0783,-0.0584,-0.0374,-0.0163,0.0083,0.0213,0.0403,0.0474,0.0412,0.0448,0.0508,0.05,0.0619,0.0621,0.0623,0.0625,0.0626,0,-0.0789,-0.086,-0.0945,-0.0987,-0.1012,-0.1047,-0.106,-0.1006,-0.0992,-0.0855,-0.0834,-0.0623,-0.0439,-0.006,0.0202,0.0476,0.0471,0.0593,0.0575,0.0505,0.0538,0.0526,0.0516,0.0579,0.058,0.0581,0.0581,0,-0.0894,-0.0927,-0.1008,-0.1091,-0.1133,-0.1169,-0.1178,-0.1182,-0.1102,-0.1024,-0.0864,-0.0706,-0.0336,-0.0007,0.0337,0.049,0.0548,0.0618,0.0582,0.0511,0.0477,0.0506,0.0495,0.0588,0.0588,0.0587,0.0587,0.0587,-0.0956,-0.1022,-0.1117,-0.1194,-0.1246,-0.1271,-0.1276,-0.1251,-0.12,-0.1041,-0.0887,-0.0595,-0.0313,0.0218,0.0437,0.0646,0.0644,0.0697,0.0691,0.0685,0.0655,0.0626,0.076,0.076,0.076,0.076,0.0761,0,-0.1013,-0.1095,-0.1194,-0.1277,-0.1337,-0.1332,-0.1339,-0.13,-0.1216,-0.1008,-0.0803,-0.0432,-0.0072,0.0218,0.0555,0.074,0.071,0.0763,0.0685,0.0678,0.0671,0.0637,0.074,0.074,0.074,0.0741,0,0,-0.1044,-0.1161,-0.1219,-0.1333,-0.1377,-0.1396,-0.1388,-0.1297,-0.1144,-0.0906,-0.0657,-0.0358,-0.0016,0.0215,0.0435,0.0602,0.0588,0.0613,0.0613,0.0488,0.0479,0.0621,0.056,0,0,0,0,0]}],[{"header":{"parameterUnit":"m.s-1","parameterCategory":2,"la1":30.2991,"la2":30.254,"lo1":-89.0895,"lo2":-89.0444,"dy":0.0017,"dx":0.0017,"nx":28,"ny":28,"refTime":"2024-10-21T03:00:00:Z","depth":"4","parameterNumber":2,"parameterNumberName":"U-component_of_CURRENTS"},"data":[0,0,0,0,0,0,0,0,0,0,0,0,0,0,0,0,0,0,0,0,0,0,0,0,0,0,0,0,0,0,0,0,0,0,0,0,0,0,0,0,0,0,0,0,0,0,0,0,0,0,0,0,0,0,0,0,0,0,-0.1276,-0.1277,0,-0.1365,-0.1366,-0.1366,-0.1411,-0.1412,-0.1412,-0.1412,-0.1501,-0.1503,-0.1505,0,0,0,0,0,0,0,0,0,0,0,0,0,-0.1144,-0.1146,-0.1276,-0.1277,-0.1278,-0.1365,-0.1366,-0.1367,-0.1411,-0.1412,-0.1412,-0.1412,-0.15,-0.1502,-0.1505,0,0,0,0,0,0,0,0,0,0,0,0,0,-0.1212,-0.1147,-0.1276,-0.1313,-0.1317,-0.1364,-0.1366,-0.1367,-0.1411,-0.1412,-0.1412,-0.1412,-0.1499,-0.1502,-0.1505,-0.1518,0,0,-0.1515,-0.1516,0,0,0,0,0,0,0,0,-0.1208,-0.1216,-0.1306,-0.131,-0.1315,-0.1379,-0.1352,-0.1418,-0.1411,-0.1373,-0.1412,-0.1412,-0.1461,-0.1468,-0.148,-0.1522,-0.1526,-0.1515,-0.1517,-0.1519,-0.152,0,0,0,0,0,0,0,-0.1203,-0.1213,-0.1309,-0.1307,-0.1313,-0.1325,-0.1335,-0.1365,-0.1412,-0.1376,-0.1381,-0.1394,-0.1463,-0.1477,-0.1483,-0.1527,-0.1515,-0.1518,-0.152,-0.1521,-0.167,-0.1672,0,0,0,0,0,0,-0.1197,-0.1209,-0.1306,-0.1312,-0.1264,-0.1327,-0.1338,-0.1357,-0.1412,-0.1422,-0.1394,-0.1396,-0.1471,-0.1479,-0.1486,-0.1586,-0.1519,-0.1522,-0.1524,-0.1668,-0.167,-0.1673,0,0,0,0,0,0,-0.1194,-0.1205,-0.1302,-0.1263,-0.1277,-0.1329,-0.135,-0.1358,-0.1397,-0.1426,-0.1435,-0.1426,-0.1472,-0.1482,-0.1544,-0.1587,-0.1523,-0.1526,-0.1666,-0.1669,-0.1671,-0.1734,0,0,0,0,0,0,-0.119,-0.1203,-0.1218,-0.1263,-0.1279,-0.1352,-0.135,-0.136,-0.1404,-0.1408,-0.1456,-0.1464,-0.1473,-0.1539,-0.1547,-0.159,-0.1529,-0.1663,-0.1667,-0.167,-0.173,-0.1739,-0.1747,0,0,0,0,0,-0.1185,-0.1201,-0.1218,-0.1231,-0.1297,-0.1354,-0.1364,-0.1399,-0.1406,-0.1433,-0.1468,-0.1463,-0.1569,-0.1544,-0.1552,-0.1597,-0.1661,-0.1666,-0.167,-0.1726,-0.1737,-0.1747,0,0,0,0,0,0,-0.1147,-0.1209,-0.1229,-0.1262,-0.1316,-0.1363,-0.1387,-0.1413,-0.1462,-0.1471,-0.149,-0.1501,-0.1567,-0.1576,-0.1548,-0.1651,-0.1614,-0.162,-0.1653,-0.1664,-0.1673,-0.1683,-0.1531,0,0,0,0,0,-0.1147,-0.1175,-0.1241,-0.1266,-0.1297,-0.1346,-0.1375,-0.1409,-0.1454,-0.1477,-0.1513,-0.1551,-0.1589,-0.1622,-0.1651,-0.1713,-0.1709,-0.1748,-0.1757,-0.1764,-0.1779,-0.1804,-0.1816,-0.1687,-0.1687,-0.1687,0,0,-0.1134,-0.1174,-0.1188,-0.126,-0.13,-0.136,-0.1365,-0.1423,-0.1476,-0.1478,-0.1559,-0.1581,-0.161,-0.1677,-0.1708,-0.1695,-0.1798,-0.177,-0.1776,-0.1787,-0.181,-0.1822,-0.1833,-0.1691,-0.169,-0.1689,0,0,-0.1139,-0.1168,-0.1208,-0.1265,-0.1344,-0.1374,-0.1399,-0.1473,-0.1512,-0.1589,-0.1602,-0.1655,-0.1719,-0.1753,-0.1774,-0.1851,-0.1836,-0.1863,-0.1928,-0.1952,-0.1962,-0.1972,-0.1977,-0.1986,-0.1877,-0.1877,-0.1877,0,-0.1125,-0.1187,-0.1226,-0.1297,-0.1344,-0.1386,-0.1452,-0.1499,-0.1586,-0.1626,-0.1625,-0.1733,-0.1755,-0.1836,-0.1869,-0.1871,-0.1876,-0.1883,-0.1962,-0.1971,-0.198,-0.1983,-0.1992,-0.188,-0.188,-0.188,-0.1879,0,-0.1169,-0.1236,-0.1265,-0.1362,-0.1416,-0.1475,-0.1553,-0.1616,-0.1657,-0.17,-0.1793,-0.1829,-0.1892,-0.1912,-0.1919,-0.2002,-0.1982,-0.196,-0.1931,-0.1996,-0.1995,-0.2004,-0.1886,-0.1884,-0.1883,-0.1882,0,0,-0.1089,-0.1263,-0.1272,-0.1348,-0.146,-0.1509,-0.1603,-0.1694,-0.1759,-0.1831,-0.1912,-0.1984,-0.1999,-0.2025,-0.2042,-0.208,-0.2139,-0.206,-0.206,-0.2058,-0.2188,-0.2014,-0.2006,-0.2133,-0.2135,-0.2137,-0.2161,0,-0.1111,-0.1242,-0.1324,-0.1446,-0.1521,-0.161,-0.169,-0.1781,-0.1846,-0.1932,-0.198,-0.2051,-0.2041,-0.2083,-0.2119,-0.2135,-0.2167,-0.2135,-0.2132,-0.2132,-0.1963,-0.2012,-0.2143,-0.2167,-0.2169,-0.217,-0.2171,0,-0.1118,-0.1214,-0.1338,-0.1513,-0.1552,-0.1632,-0.1764,-0.1853,-0.1972,-0.2021,-0.2098,-0.2131,-0.2211,-0.2182,-0.2242,-0.2224,-0.222,-0.2222,-0.2222,-0.2045,-0.1974,-0.2091,-0.2186,-0.2185,-0.2184,-0.2183,-0.2182,0,-0.1027,-0.1215,-0.1309,-0.1371,-0.1568,-0.165,-0.1746,-0.1879,-0.1958,-0.2085,-0.2136,-0.2218,-0.2264,-0.2284,-0.2283,-0.2278,-0.2324,-0.2303,-0.2143,-0.213,-0.2251,-0.2241,-0.2344,-0.2344,-0.2344,-0.2343,-0.2343,0,-0.1003,-0.1083,-0.1286,-0.1352,-0.1472,-0.1624,-0.1755,-0.1858,-0.2001,-0.2084,-0.2175,-0.2228,-0.2296,-0.2324,-0.2313,-0.2238,-0.2338,-0.2161,-0.2128,-0.2276,-0.2269,-0.2256,-0.2246,-0.2344,-0.2344,-0.2344,-0.2344,0,-0.0886,-0.1023,-0.1156,-0.1374,-0.1445,-0.1532,-0.1758,-0.1846,-0.1983,-0.2097,-0.2139,-0.2252,-0.2271,-0.2301,-0.2329,-0.225,-0.2213,-0.2162,-0.2317,-0.2291,-0.2002,-0.1996,-0.1994,-0.1988,-0.1983,-0.1979,-0.1975,0,-0.0833,-0.0885,-0.113,-0.1221,-0.1333,-0.1494,-0.1603,-0.18,-0.1892,-0.2086,-0.2117,-0.22,-0.2245,-0.2134,-0.2179,-0.2125,-0.2096,-0.207,-0.2045,-0.2,-0.1969,-0.197,-0.197,-0.1967,-0.1966,-0.1965,-0.1963,0,-0.0694,-0.0786,-0.0886,-0.1105,-0.1251,-0.1411,-0.1588,-0.1643,-0.1861,-0.1987,-0.2031,-0.2038,-0.2047,-0.203,-0.199,-0.1958,-0.2085,-0.2018,-0.2028,-0.2004,-0.1968,-0.1942,-0.1948,-0.1946,-0.1949,-0.195,-0.1951,0,-0.056,-0.058,-0.0743,-0.0942,-0.1131,-0.1299,-0.1422,-0.1548,-0.1658,-0.1873,-0.1875,-0.1947,-0.2037,-0.1943,-0.1915,-0.1853,-0.1826,-0.1771,-0.1794,-0.1814,-0.1737,-0.1664,-0.1525,0,0,0,0,0,-0.0412,-0.0434,-0.0582,-0.0814,-0.1031,-0.1166,-0.1393,-0.1519,-0.172,-0.1698,-0.1787,-0.1784,-0.1746,-0.1779,-0.1671,-0.1823,-0.1829,-0.1692,-0.178,-0.1851,-0.1871,-0.1793,0,0,0,0,0,0,-0.0323,-0.0372,-0.0493,-0.0685,-0.0838,-0.1059,-0.1211,-0.1365,-0.1375,-0.1555,-0.1532,-0.1644,-0.1617,-0.1746,-0.1614,-0.1622,-0.1637,-0.1734,-0.1729,-0.1839,-0.1857,-0.1873,-0.1801,0,0,0,0,0]},{"header":{"parameterUnit":"m.s-1","parameterCategory":2,"la1":30.2991,"la2":30.254,"lo1":-89.0895,"lo2":-89.0444,"dy":0.0017,"dx":0.0017,"nx":28,"ny":28,"refTime":"2024-10-21T03:00:00:Z","depth":"4","parameterNumber":3,"parameterNumberName":"V-component_of_CURRENTS"},"data":[0,0,0,0,0,0,0,0,0,0,0,0,0,0,0,0,0,0,0,0,0,0,0,0,0,0,0,0,0,0,0,0,0,0,0,0,0,0,0,0,0,0,0,0,0,0,0,0,0,0,0,0,0,0,0,0,0,0,-0.018,-0.0179,0,-0.0138,-0.0138,-0.0137,-0.0095,-0.0094,-0.0094,-0.0094,-0.0004,-0.0002,0.0,0,0,0,0,0,0,0,0,0,0,0,0,0,-0.0146,-0.0147,-0.018,-0.0179,-0.0179,-0.0138,-0.0138,-0.0137,-0.0095,-0.0094,-0.0094,-0.0093,-0.0004,-0.0002,0.0001,0,0,0,0,0,0,0,0,0,0,0,0,0,-0.0137,-0.0148,-0.018,-0.0154,-0.0152,-0.0138,-0.0138,-0.0137,-0.0095,-0.0094,-0.0094,-0.0093,-0.0005,-0.0002,0.0001,0.0007,0,0,0.001,0.0011,0,0,0,0,0,0,0,0,-0.0138,-0.0138,-0.0158,-0.0156,-0.0153,-0.0122,-0.0093,-0.0087,-0.0095,-0.0115,-0.0094,-0.0093,-0.004,-0.0034,-0.0026,0.0011,0.0015,0.001,0.0012,0.0013,0.0014,0,0,0,0,0,0,0,-0.0139,-0.0139,-0.0162,-0.0158,-0.0155,-0.0119,-0.0117,-0.0091,-0.008,-0.0113,-0.011,-0.0108,-0.0038,-0.003,-0.0024,0.0016,0.001,0.0013,0.0015,0.0016,0.0071,0.0071,0,0,0,0,0,0,-0.0152,-0.0141,-0.0163,-0.016,-0.0145,-0.0121,-0.0119,-0.0132,-0.0081,-0.0073,-0.0109,-0.0107,-0.0035,-0.0027,-0.0021,-0.0008,0.0013,0.0016,0.0018,0.0072,0.0071,0.0071,0,0,0,0,0,0,-0.0152,-0.0155,-0.0165,-0.0149,-0.0148,-0.0123,-0.0137,-0.0131,-0.0121,-0.0079,-0.007,-0.0105,-0.0034,-0.0025,-0.0001,-0.0004,0.0018,0.002,0.0072,0.0071,0.0071,0.0015,0,0,0,0,0,0,-0.0151,-0.0156,-0.0168,-0.0151,-0.015,-0.0167,-0.0137,-0.0131,-0.0122,-0.0119,-0.0072,-0.0063,-0.0033,-0.0006,0.0002,0.0,0.0023,0.0072,0.0072,0.0071,0.0017,0.0013,0.0009,0,0,0,0,0,-0.015,-0.018,-0.017,-0.0172,-0.017,-0.0168,-0.0165,-0.0141,-0.0123,-0.0128,-0.0093,-0.0065,-0.0004,-0.0004,0.0005,0.0004,0.0073,0.0072,0.0071,0.0019,0.0013,0.0009,0,0,0,0,0,0,-0.017,-0.0178,-0.0166,-0.0196,-0.0185,-0.0162,-0.0166,-0.0146,-0.0123,-0.0116,-0.0069,-0.0059,-0.0041,-0.0012,-0.0013,0.0018,0.0039,0.004,-0.0004,-0.0008,-0.0013,-0.0012,0.0025,0,0,0,0,0,-0.0182,-0.0207,-0.0197,-0.0217,-0.0216,-0.0189,-0.0184,-0.0169,-0.0146,-0.0135,-0.0101,-0.0065,-0.0038,-0.0018,0.0007,0.0025,0.0067,0.0031,0.0026,0.0022,0.0029,0.0087,0.0089,0.0068,0.0068,0.0068,0,0,-0.0195,-0.0201,-0.0215,-0.0223,-0.0211,-0.0215,-0.0184,-0.0185,-0.0181,-0.0129,-0.0113,-0.0082,-0.0038,-0.002,-0.0009,0.0006,0.0048,0.0021,0.0018,0.0027,0.0087,0.0089,0.0091,0.0068,0.0068,0.0068,0,0,-0.0234,-0.0239,-0.027,-0.0265,-0.0257,-0.024,-0.0242,-0.0221,-0.0205,-0.0191,-0.015,-0.0119,-0.0082,-0.0046,-0.0023,-0.0034,0.0019,-0.003,-0.0043,0.0012,0.0015,0.0017,0.0065,0.0072,-0.0026,-0.0026,-0.0026,0,-0.0242,-0.0281,-0.0275,-0.0293,-0.0291,-0.0254,-0.0269,-0.0251,-0.0223,-0.0207,-0.0195,-0.0124,-0.0091,-0.0052,-0.0056,-0.0043,-0.0004,-0.0029,0.0007,0.0011,0.0015,0.0063,0.0072,-0.0029,-0.0029,-0.0028,-0.0028,0,-0.03,-0.0321,-0.0336,-0.0348,-0.0345,-0.0353,-0.0327,-0.0316,-0.0288,-0.0261,-0.0223,-0.0173,-0.0126,-0.0114,-0.0088,-0.0046,-0.0026,-0.001,0.002,0.0014,0.0064,0.0075,-0.0033,-0.0032,-0.0031,-0.0031,0,0,-0.0326,-0.037,-0.0372,-0.0385,-0.0372,-0.0378,-0.0369,-0.0348,-0.0337,-0.0296,-0.0271,-0.0218,-0.0179,-0.015,-0.0107,-0.0056,-0.0002,-0.0024,-0.002,0.0022,0.012,0.0102,0.0112,0.0022,0.0024,0.0025,0.0141,0,-0.036,-0.0425,-0.0425,-0.0455,-0.0477,-0.0439,-0.0438,-0.0412,-0.0373,-0.0341,-0.027,-0.0235,-0.0195,-0.0172,-0.0114,-0.003,0.0024,-0.0035,0.0121,0.0126,0.0111,0.0124,0.003,0.0149,0.0152,0.0154,0.0155,0,-0.0406,-0.0442,-0.05,-0.0516,-0.052,-0.0528,-0.0507,-0.05,-0.0439,-0.0408,-0.0344,-0.0285,-0.0201,-0.0172,-0.0017,-0.0056,0.0027,0.0095,0.0101,0.0115,0.0128,0.0161,0.0175,0.0173,0.0172,0.017,0.0169,0,-0.044,-0.0483,-0.0536,-0.0542,-0.056,-0.0566,-0.0563,-0.0523,-0.0514,-0.0443,-0.042,-0.031,-0.0252,-0.0132,0.0009,0.0001,0.0181,0.0187,0.0253,0.0253,0.0259,0.0255,0.0299,0.0299,0.0299,0.0298,0.0298,0,-0.0474,-0.0505,-0.0562,-0.0588,-0.0627,-0.0619,-0.0637,-0.0609,-0.0575,-0.056,-0.0459,-0.0406,-0.0237,-0.0114,0.0008,0.0164,0.0185,0.0259,0.0285,0.023,0.0222,0.0266,0.0261,0.0303,0.0302,0.0301,0.03,0,-0.0493,-0.0536,-0.0591,-0.0637,-0.065,-0.0677,-0.0695,-0.0704,-0.0663,-0.0635,-0.0613,-0.0467,-0.0301,-0.0134,0.0074,0.0157,0.0306,0.0356,0.0285,0.0304,0.0341,0.0331,0.044,0.044,0.0441,0.0441,0.0441,0,-0.0503,-0.0548,-0.0634,-0.067,-0.069,-0.0732,-0.0761,-0.0749,-0.075,-0.0665,-0.0648,-0.0486,-0.0374,-0.008,0.0084,0.0315,0.0342,0.041,0.0377,0.0342,0.0358,0.0347,0.0338,0.0442,0.0442,0.0442,0.0442,0,-0.0502,-0.0551,-0.0604,-0.0701,-0.075,-0.0805,-0.0838,-0.0846,-0.082,-0.0786,-0.0648,-0.0486,-0.0298,-0.0073,0.0106,0.0268,0.0358,0.0414,0.0414,0.0384,0.0346,0.0359,0.0348,0.0443,0.0443,0.0443,0.0443,0,-0.0483,-0.0529,-0.0622,-0.0699,-0.0784,-0.0849,-0.0869,-0.0853,-0.0844,-0.0748,-0.0698,-0.0482,-0.0348,-0.0096,0.0069,0.0225,0.0256,0.029,0.0297,0.0298,0.0213,0.0141,0.0206,0,0,0,0,0,-0.0437,-0.0501,-0.0601,-0.0701,-0.0808,-0.0851,-0.0904,-0.0915,-0.0893,-0.08,-0.0746,-0.0562,-0.0284,-0.0149,0.0006,0.0049,0.0257,0.023,0.0293,0.045,0.0449,0.037,0,0,0,0,0,0,-0.0412,-0.0491,-0.0585,-0.0702,-0.0775,-0.0876,-0.0915,-0.0906,-0.0843,-0.0785,-0.0624,-0.0536,-0.0257,-0.036,0.0013,0.006,0.0115,0.0367,0.0369,0.0451,0.045,0.0449,0.0367,0,0,0,0,0]}]]